Flag for Germany Weather past 2 weeks in Lübeck, Schleswig-Holstein, Germany

Now
57 °F

Passing clouds.


Feels Like: 56 °F
Forecast: 55 / 65 °F
Wind: 6 mph from West

Location: Luebeck-Blankensee

Current Time: Sep 2, 2015 at 1:27:15 AM

Latest Report: Sep 1, 2015 at 10:20 PM


Visibility: N/A

Pressure: 29.86 "Hg

Humidity: 88%

Dew point: 54 °F

Location of LübeckLocation

Historic Weather in Lübeck — Graph

°F

Lübeck temperature yesterday

Maximum temperature yesterday: 70 °F (at 10:20 AM)
Minimum temperature yesterday: 57 °F (at 10:20 PM)
Average temperature yesterday: 64 °F

Past Weeks' High & Low Weather Summary

 TemperatureHumidityPressure
High81 °F (Aug 31, 3:50 PM)100% (Aug 18, 8:50 PM)30.30 "Hg (Aug 18, 8:50 PM)
Low48 °F (Aug 21, 6:50 AM)30% (Aug 21, 3:50 PM)29.62 "Hg (Aug 24, 7:50 PM)
Average66 °F75%29.99 "Hg
* Reported Aug 18 6:50 AM — Sep 1 10:20 PM, Lübeck, Weather by CustomWeather, © 2015

Note: Actual official high and low records may vary slightly from our data, if they occured in-between our weather recording intervals... More about our weather records

Advertising

Lübeck weather history for previous 24 hours

 ConditionsComfort  
Time TempWeatherWind HumidityBarometerVisibility
10:20 PM
Tue, Sep 1
57 °FPassing clouds.6 mph88%29.86 "HgN/A
9:50 PM59 °FPassing clouds.7 mph82%29.86 "HgN/A
9:20 PM59 °FPassing clouds.7 mph82%29.86 "HgN/A
8:50 PM61 °FScattered clouds.8 mph77%29.83 "HgN/A
8:20 PM61 °FBroken clouds.7 mph83%29.83 "HgN/A
7:50 PM61 °FBroken clouds.7 mph88%29.83 "HgN/A
7:20 PM61 °FLight rain. Partly sunny.7 mph88%29.80 "HgN/A
6:50 PM61 °FLight rain. Broken clouds.10 mph88%29.80 "HgN/A
6:20 PM63 °FLight rain. Partly sunny.7 mph83%29.80 "HgN/A
5:50 PM63 °FBroken clouds.9 mph83%29.80 "HgN/A
5:20 PM63 °FBroken clouds.9 mph83%29.80 "HgN/A
4:50 PM64 °FBroken clouds.8 mph78%29.80 "HgN/A
4:20 PM64 °FPartly sunny.9 mph78%29.77 "HgN/A
3:50 PM64 °FBroken clouds.9 mph78%29.77 "HgN/A
3:20 PM63 °FPartly sunny.8 mph83%29.77 "HgN/A
2:50 PM63 °FLight rain. Partly sunny.10 mph88%29.77 "HgN/A
2:20 PM64 °FPartly sunny.8 mph78%29.77 "HgN/A
1:50 PM66 °FBroken clouds.10 mph78%29.77 "HgN/A
1:20 PM66 °FBroken clouds.15 mph73%29.74 "HgN/A
12:50 PM64 °FBroken clouds.10 mph78%29.74 "HgN/A
12:20 PM64 °FPartly sunny.12 mph78%29.74 "HgN/A
11:50 AM68 °FBroken clouds.14 mph73%29.74 "HgN/A
11:20 AM66 °FBroken clouds.12 mph83%29.71 "HgN/A
10:50 AM70 °FBroken clouds.14 mph78%29.71 "HgN/A
10:20 AM70 °FScattered clouds.14 mph78%29.71 "HgN/A
9:50 AM68 °FBroken clouds.12 mph83%29.71 "HgN/A
9:20 AM68 °FScattered showers. Broken clouds.8 mph88%29.71 "HgN/A
8:50 AM68 °FBroken clouds.6 mph88%29.68 "HgN/A
8:20 AM66 °FBroken clouds.3 mph94%29.71 "HgN/A
7:50 AM66 °FPartly sunny.3 mph94%29.68 "HgN/A
7:20 AM66 °FPassing clouds.3 mph94%29.71 "HgN/A
6:50 AM64 °FPassing clouds.2 mph94%29.71 "HgN/A
Weather by CustomWeather, © 2015

See weather overviewHow to use our weather pages